Change the Weather History Date:

Tuesday, March 5, 2013

  Actual Average Record
Temperature  
Mean Temperature 5 °F -  
Max Temperature 17 °F 30 °F 59 °F (1988)
Min Temperature -7 °F 7 °F -21 °F (1976)
Degree Days  
Heating Degree Days 60    
Moisture  
Dew Point 6 °F    
Average Humidity 87    
Maximum Humidity 93    
Minimum Humidity 78    
Precipitation  
Precipitation 0.04 in - - ()
Sea Level Pressure  
Sea Level Pressure 30.33 in    
Wind  
Wind Speed 12 mph (NW)    
Max Wind Speed 17 mph    
Max Gust Speed -    
Visibility 9 miles    
Events Fog , Rain , Snow    
Averages and records for this station are not official NWS values.
T = Trace of Precipitation, MM = Missing Value Source: NWS Daily Summary

Daily Weather History Graph

Daily Weather History Graph

Search for Another Location

Airport or City:

Trip Planner

Search our weather history database for the weather conditions in past years. The results will help you decide how hot, cold, wet, or windy it might be!

Date:

Astronomy

Mar. 05, 2013 Rise Set
Actual Time 7:12 AM CST 6:30 PM CST
Civil Twilight 6:41 AM CST 7:02 PM CST
Nautical Twilight 6:05 AM CST 7:38 PM CST
Astronomical Twilight 5:29 AM CST 8:14 PM CST
Moon 2:48 AM CST (3/5) 11:50 AM CST (3/5)
Length of Visible Light 12h 20m
Length of Day
11h 17m
Last Quarter, 40% of the Moon is Illuminated
Mar 5
Last Quarter
Mar 11
New
Mar 19
First Quarter
Mar 27
Full
Apr 2
Last Quarter

Hourly Weather History & Observations

Time (CST) Temp. Windchill Dew Point Humidity Pressure Visibility Wind Dir Wind Speed Gust Speed Precip Events Conditions
12:15 AM 17.6 °F 2.7 °F 15.8 °F 93% 30.15 in 10.0 mi North 16.1 mph - N/A   Mostly Cloudy
12:35 AM 17.6 °F 2.2 °F 15.8 °F 93% 30.15 in 9.0 mi North 17.3 mph - N/A   Scattered Clouds
12:55 AM 17.6 °F 2.2 °F 15.8 °F 93% 30.15 in 7.0 mi North 17.3 mph - N/A Snow Light Snow
1:15 AM 17.6 °F 2.2 °F 15.8 °F 93% 30.16 in 4.0 mi NNE 17.3 mph - N/A Rain Light Freezing Rain
1:35 AM 17.6 °F 2.7 °F 15.8 °F 93% 30.17 in 6.0 mi North 16.1 mph - N/A Rain Light Freezing Rain
1:55 AM 17.6 °F 2.2 °F 15.8 °F 93% 30.17 in 10.0 mi NNE 17.3 mph - N/A   Scattered Clouds
2:15 AM 17.6 °F 2.2 °F 15.8 °F 93% 30.19 in 10.0 mi North 17.3 mph - N/A   Clear
2:35 AM 17.6 °F 3.2 °F 14.0 °F 86% 30.20 in 9.0 mi North 15.0 mph - N/A Snow Light Snow
2:55 AM 17.6 °F 3.7 °F 15.8 °F 93% 30.21 in 2.5 mi North 13.8 mph - 0.01 in Snow Light Snow
3:15 AM 17.6 °F 3.2 °F 14.0 °F 86% 30.22 in 3.0 mi North 15.0 mph - 0.02 in Snow Light Snow
3:35 AM 15.8 °F 2.1 °F 14.0 °F 93% 30.23 in 5.0 mi North 12.7 mph - 0.03 in Snow Light Snow
3:55 AM 15.8 °F 2.1 °F 12.2 °F 86% 30.24 in 10.0 mi North 12.7 mph - 0.03 in Snow Light Snow
4:15 AM 15.8 °F 0.9 °F 14.0 °F 93% 30.24 in 5.0 mi North 15.0 mph - N/A Rain Light Freezing Rain
4:35 AM 15.8 °F 0.9 °F 12.2 °F 86% 30.25 in 8.0 mi North 15.0 mph - N/A Snow Light Snow
4:55 AM 14.0 °F -2.5 °F 10.4 °F 86% 30.25 in 8.0 mi North 17.3 mph - N/A Snow Light Snow
5:15 AM 14.0 °F -1.4 °F 10.4 °F 86% 30.27 in 10.0 mi NNW 15.0 mph - N/A Snow Light Snow
5:35 AM 14.0 °F -0.8 °F 8.6 °F 79% 30.27 in 10.0 mi NNW 13.8 mph - N/A Snow Light Snow
6:15 AM 6.8 °F -10.7 °F 5.0 °F 92% 30.29 in 10.0 mi NW 15.0 mph - N/A   Clear
6:35 AM 5.0 °F -12.3 °F 1.4 °F 85% 30.30 in 10.0 mi NW 13.8 mph - N/A   Clear
7:35 AM 1.4 °F -16.1 °F -0.4 °F 92% 30.32 in 10.0 mi NW 12.7 mph - N/A   Clear
7:55 AM 1.4 °F -15.3 °F -0.4 °F 92% 30.32 in 10.0 mi NW 11.5 mph - N/A   Clear
8:15 AM 1.4 °F -14.5 °F -2.2 °F 85% 30.33 in 10.0 mi NW 10.4 mph - N/A   Clear
8:35 AM 1.4 °F -14.5 °F -0.4 °F 92% 30.33 in 10.0 mi NNW 10.4 mph - N/A   Clear
8:55 AM 3.2 °F -12.2 °F -0.4 °F 85% 30.34 in 10.0 mi NW 10.4 mph - N/A   Clear
9:15 AM 3.2 °F -11.3 °F -0.4 °F 85% 30.34 in 10.0 mi NW 9.2 mph - N/A   Clear
9:35 AM 3.2 °F -11.3 °F -0.4 °F 85% 30.34 in 10.0 mi NW 9.2 mph - N/A   Clear
9:55 AM 5.0 °F -9.1 °F -0.4 °F 78% 30.35 in 10.0 mi NW 9.2 mph - N/A   Clear
10:15 AM 5.0 °F -8.1 °F 1.4 °F 85% 30.36 in 10.0 mi NW 8.1 mph - N/A   Clear
10:35 AM 6.8 °F -7.8 °F 3.2 °F 85% 30.37 in 10.0 mi NW 10.4 mph - N/A   Clear
10:55 AM 8.6 °F -5.5 °F 5.0 °F 85% 30.37 in 10.0 mi NW 10.4 mph - N/A   Clear
11:15 AM 10.4 °F -3.3 °F 6.8 °F 85% 30.38 in 10.0 mi NW 10.4 mph - N/A   Clear
11:35 AM 12.2 °F -0.2 °F 8.6 °F 85% 30.37 in 10.0 mi NW 9.2 mph - N/A   Clear
11:55 AM 12.2 °F -0.2 °F 8.6 °F 85% 30.37 in 10.0 mi NW 9.2 mph - N/A   Clear
12:15 PM 12.2 °F -1.0 °F 8.6 °F 85% 30.37 in 10.0 mi NW 10.4 mph - N/A   Clear
12:35 PM 14.0 °F 0.5 °F 8.6 °F 79% 30.38 in 10.0 mi NW 11.5 mph - N/A   Clear
12:55 PM 14.0 °F 2.0 °F 8.6 °F 79% 30.37 in 10.0 mi NW 9.2 mph - N/A   Clear
1:15 PM 14.0 °F 1.2 °F 10.4 °F 86% 30.37 in 10.0 mi NW 10.4 mph - N/A   Clear
1:35 PM 14.0 °F 1.2 °F 10.4 °F 86% 30.37 in 10.0 mi NW 10.4 mph - N/A   Clear
1:55 PM 14.0 °F 1.2 °F 10.4 °F 86% 30.37 in 10.0 mi NW 10.4 mph - N/A   Clear
2:15 PM 15.8 °F 3.4 °F 10.4 °F 79% 30.37 in 10.0 mi NW 10.4 mph - N/A   Clear
2:35 PM 15.8 °F 3.4 °F 10.4 °F 79% 30.37 in 10.0 mi NW 10.4 mph - N/A   Clear
2:55 PM 15.8 °F 4.2 °F 10.4 °F 79% 30.37 in 10.0 mi NW 9.2 mph - N/A   Clear
3:15 PM 15.8 °F 3.4 °F 10.4 °F 79% 30.37 in 10.0 mi NW 10.4 mph - N/A   Clear
3:35 PM 15.8 °F 4.2 °F 10.4 °F 79% 30.38 in 10.0 mi WNW 9.2 mph - N/A   Clear
3:55 PM 15.8 °F 3.4 °F 10.4 °F 79% 30.37 in 10.0 mi NW 10.4 mph - N/A   Partly Cloudy
4:15 PM 14.0 °F 1.2 °F 10.4 °F 86% 30.37 in 10.0 mi NW 10.4 mph - N/A   Scattered Clouds
4:35 PM 14.0 °F 1.2 °F 10.4 °F 86% 30.37 in 10.0 mi NW 10.4 mph - N/A   Mostly Cloudy
4:55 PM 14.0 °F 0.5 °F 10.4 °F 86% 30.37 in 10.0 mi NW 11.5 mph - N/A   Partly Cloudy
5:15 PM 12.2 °F 1.7 °F 8.6 °F 85% 30.37 in 10.0 mi WNW 6.9 mph - N/A   Clear
5:35 PM 10.4 °F 2.2 °F 6.8 °F 85% 30.37 in 10.0 mi WNW 4.6 mph - N/A   Clear
5:55 PM 8.6 °F 2.0 °F 6.8 °F 92% 30.37 in 10.0 mi NNW 3.5 mph - N/A   Clear
6:15 PM 8.6 °F 2.0 °F 6.8 °F 92% 30.38 in 10.0 mi NNW 3.5 mph - N/A   Clear
6:35 PM 8.6 °F 0.1 °F 6.8 °F 92% 30.37 in 10.0 mi NW 4.6 mph - N/A   Clear
6:55 PM 8.6 °F 2.0 °F 6.8 °F 92% 30.37 in 10.0 mi NW 3.5 mph - N/A   Clear
7:15 PM 8.6 °F 2.0 °F 6.8 °F 92% 30.37 in 10.0 mi WNW 3.5 mph - N/A   Clear
7:35 PM 6.8 °F -0.1 °F 5.0 °F 92% 30.37 in 10.0 mi West 3.5 mph - N/A   Clear
7:55 PM 5.0 °F - 3.2 °F 92% 30.37 in 10.0 mi Calm Calm - N/A   Clear
8:15 PM 1.4 °F -8.3 °F -0.4 °F 92% 30.37 in 8.0 mi SW 4.6 mph - N/A   Clear
8:35 PM 3.2 °F - -0.4 °F 85% 30.38 in 10.0 mi Calm Calm - N/A   Clear
8:55 PM 3.2 °F - -0.4 °F 85% 30.38 in 10.0 mi Calm Calm - N/A   Clear
9:15 PM 1.4 °F - -0.4 °F 92% 30.38 in 10.0 mi Calm Calm - N/A   Clear
9:35 PM -2.2 °F - -5.8 °F 85% 30.38 in 9.0 mi Calm Calm - N/A   Clear
9:55 PM -0.4 °F - -2.2 °F 92% 30.38 in 9.0 mi Calm Calm - N/A   Clear
10:15 PM -0.4 °F - -2.2 °F 92% 30.39 in 9.0 mi Calm Calm - N/A   Clear
10:35 PM -2.2 °F - -7.6 °F 78% 30.39 in 0.5 mi Calm Calm - N/A Fog Light Freezing Fog
10:55 PM -2.2 °F -10.4 °F -7.6 °F 78% 30.39 in 0.2 mi SW 3.5 mph - N/A Fog Light Freezing Fog
11:15 PM -7.6 °F - -11.2 °F 84% 30.39 in 0.2 mi Calm Calm - N/A Fog Light Freezing Fog
11:35 PM -4.0 °F - -9.4 °F 78% 30.39 in 0.2 mi Calm Calm - N/A Fog Light Freezing Fog
11:55 PM -4.0 °F - -9.4 °F 78% 30.39 in 0.2 mi Calm Calm - N/A Fog Light Freezing Fog